ROMMA est une association bénévole à but non lucratif. Votre soutien est indispensable : ADHERER à ROMMA ou FAIRE un DON

Briord - (01, Ain)

Bugey (281 m)   Longitude: 05° 29' 13" E   Latitude: 45° 46' 37" N Station partenaire n°15
 

Détail journalier du     <<     >>

Température Precipitation Humidité Pression Vent Dir Rafale Dir. rafale Ensol.
Heure (°C) (mm) (%) (hPa) (km/h) (km/h) (min)
01:00 15.8074101503ESE0
02:00 14.7075101505SE0
03:00 14.7074101506ESE0
04:00 13.5080101503SE0
05:00 13.2083101402SE0
06:00 12.9086101500---0
07:00 12.6086101500---0
08:00 12.6087101502ESE0
09:00 12.4089101500---0
10:00 14.3087101500---0
11:00 19.4072101500---0
12:00 21.8067101505NO0
13:00 24.305710152ONO11ONO0
14:00 26.204810151O11O45
15:00 27.505110153S15O55
16:00 28.604010146ONO23NNO60
17:00 29.104110144OSO16NNO55
18:00 29.803810145NO19ONO40
19:00 29.403910136ONO26ONO60
20:00 29.304010137ONO21NNO60
21:00 27.704510146NO23N60
22:00 26.105010146NO21N0
23:00 25.405310144N13NNO0
minuit 22.306210151NE6N0

Graphique du 12-07-2019

 

Serveur OMMA